Meteo pe oră la Aylesbury

Astăzi, 24 Ianuarie, Duminică

Timp Temperatura Precipitaţii Vânt Presiune Umiditate
00:00 0°C° 0 mm 1 m/s 741 mmHg 83%
01:00 0°C° 0 mm 1 m/s 740 mmHg 83%
02:00 -2°C° 0 mm 2 m/s 740 mmHg 84%
03:00 -2°C° 0 mm 2 m/s 740 mmHg 84%
04:00 -2°C° 0 mm 2 m/s 740 mmHg 84%
05:00 -2°C° 0 mm 2 m/s 740 mmHg 83%
06:00 -2°C° 0 mm 2 m/s 740 mmHg 83%
07:00 0°C° 0 mm 1 m/s 739 mmHg 80%
08:00 0°C° 0 mm 1 m/s 739 mmHg 78%
09:00 0°C° 0 mm 1 m/s 739 mmHg 75%
10:00 +1°C° 0 mm 1 m/s 740 mmHg 72%
11:00 +2°C° 0 mm 1 m/s 740 mmHg 68%
12:00 +3°C° 0 mm 1 m/s 740 mmHg 64%
13:00 +3°C° 0 mm 1 m/s 740 mmHg 67%
14:00 +3°C° 0 mm 1 m/s 741 mmHg 69%
15:00 +3°C° 0 mm 1 m/s 741 mmHg 72%
16:00 +1°C° 0 mm 2 m/s 741 mmHg 79%
17:00 -1°C° 0 mm 2 m/s 742 mmHg 85%
18:00 -2°C° 0 mm 3 m/s 742 mmHg 92%
19:00 -2°C° 0.1 mm 3 m/s 742 mmHg 92%
20:00 -2°C° 0.1 mm 4 m/s 743 mmHg 91%
21:00 -2°C° 0.1 mm 4 m/s 743 mmHg 91%
22:00 -2°C° 0 mm 4 m/s 743 mmHg 91%
23:00 -2°C° 0 mm 5 m/s 743 mmHg 91%

Mâine, 25 Ianuarie, Luni

Timp Temperatura Precipitaţii Vânt Presiune Umiditate
00:00 -2°C° 0 mm 5 m/s 743 mmHg 90%
01:00 -2°C° 0.1 mm 6 m/s 743 mmHg 91%
02:00 -2°C° 0.1 mm 6 m/s 743 mmHg 91%
03:00 -2°C° 0.1 mm 6 m/s 743 mmHg 92%
04:00 -2°C° 0 mm 6 m/s 744 mmHg 91%
05:00 -1°C° 0 mm 6 m/s 745 mmHg 89%
06:00 -1°C° 0 mm 6 m/s 745 mmHg 88%
07:00 -1°C° 0 mm 5 m/s 746 mmHg 89%
08:00 -2°C° 0 mm 4 m/s 746 mmHg 91%
09:00 -2°C° 0 mm 4 m/s 747 mmHg 93%
10:00 -1°C° 0 mm 4 m/s 747 mmHg 90%
11:00 0°C° 0 mm 5 m/s 748 mmHg 87%
12:00 +2°C° 0 mm 5 m/s 748 mmHg 85%
13:00 +2°C° 0 mm 5 m/s 748 mmHg 83%
14:00 +2°C° 0 mm 5 m/s 748 mmHg 81%
15:00 +2°C° 0 mm 5 m/s 748 mmHg 80%
16:00 +1°C° 0 mm 5 m/s 749 mmHg 82%
17:00 0°C° 0 mm 5 m/s 749 mmHg 85%
18:00 -1°C° 0 mm 4 m/s 750 mmHg 88%
19:00 -1°C° 0 mm 4 m/s 750 mmHg 89%
20:00 -2°C° 0 mm 4 m/s 751 mmHg 91%
21:00 -2°C° 0 mm 4 m/s 751 mmHg 92%
22:00 -2°C° 0 mm 4 m/s 751 mmHg 92%
23:00 -3°C° 0 mm 4 m/s 752 mmHg 92%

Poimâine, 26 Ianuarie, Marţi

Timp Temperatura Precipitaţii Vânt Presiune Umiditate
00:00 -2°C° 0 mm 3 m/s 752 mmHg 92%
01:00 -2°C° 0 mm 3 m/s 752 mmHg 91%
02:00 -2°C° 0 mm 3 m/s 752 mmHg 90%
03:00 -2°C° 0 mm 3 m/s 752 mmHg 90%
04:00 -2°C° 0 mm 2 m/s 752 mmHg 88%
05:00 -1°C° 0 mm 2 m/s 751 mmHg 87%
06:00 -1°C° 0 mm 2 m/s 751 mmHg 86%
07:00 -1°C° 0.3 mm 3 m/s 751 mmHg 88%
08:00 0°C° 0.3 mm 3 m/s 751 mmHg 90%
09:00 0°C° 0.3 mm 4 m/s 750 mmHg 91%
10:00 +1°C° 1.2 mm 4 m/s 749 mmHg 93%
11:00 +2°C° 1.2 mm 5 m/s 749 mmHg 94%
12:00 +3°C° 1.2 mm 6 m/s 748 mmHg 96%
13:00 +4°C° 0.7 mm 7 m/s 747 mmHg 95%
14:00 +4°C° 0.7 mm 7 m/s 746 mmHg 94%
15:00 +5°C° 0.7 mm 8 m/s 745 mmHg 94%
16:00 +5°C° 0 mm 7 m/s 745 mmHg 94%
17:00 +5°C° 0 mm 7 m/s 745 mmHg 93%
18:00 +5°C° 0 mm 6 m/s 745 mmHg 93%
19:00 +4°C° 0 mm 6 m/s 746 mmHg 92%
20:00 +4°C° 0 mm 6 m/s 747 mmHg 91%
21:00 +4°C° 0 mm 6 m/s 748 mmHg 90%
22:00 +3°C° 0 mm 6 m/s 749 mmHg 91%
23:00 +3°C° 0 mm 6 m/s 750 mmHg 91%

27 Ianuarie, Miercuri

Timp Temperatura Precipitaţii Vânt Presiune Umiditate
00:00 +3°C° 0 mm 6 m/s 750 mmHg 91%
01:00 +2°C° 0 mm 6 m/s 751 mmHg 91%
02:00 +2°C° 0 mm 5 m/s 751 mmHg 92%
03:00 +2°C° 0 mm 5 m/s 751 mmHg 93%
04:00 +2°C° 0 mm 5 m/s 751 mmHg 93%
05:00 +2°C° 0 mm 5 m/s 752 mmHg 94%
06:00 +1°C° 0 mm 4 m/s 752 mmHg 94%
07:00 +3°C° 0 mm 4 m/s 752 mmHg 94%
08:00 +3°C° 0 mm 4 m/s 752 mmHg 95%
09:00 +3°C° 0 mm 4 m/s 753 mmHg 95%
10:00 +5°C° 0 mm 4 m/s 753 mmHg 92%
11:00 +6°C° 0 mm 5 m/s 752 mmHg 90%
12:00 +8°C° 0 mm 5 m/s 752 mmHg 88%
13:00 +8°C° 0 mm 5 m/s 752 mmHg 89%
14:00 +8°C° 0 mm 5 m/s 751 mmHg 91%
15:00 +8°C° 0 mm 5 m/s 750 mmHg 93%
16:00 +8°C° 0.5 mm 6 m/s 749 mmHg 93%
17:00 +8°C° 0.5 mm 7 m/s 748 mmHg 94%
18:00 +7°C° 0.5 mm 8 m/s 748 mmHg 95%
19:00 +9°C° 0.7 mm 8 m/s 747 mmHg 95%
20:00 +9°C° 0.7 mm 8 m/s 746 mmHg 95%
21:00 +9°C° 0.7 mm 8 m/s 745 mmHg 95%
22:00 +10°C° 1.2 mm 8 m/s 744 mmHg 93%
23:00 +10°C° 1.2 mm 8 m/s 742 mmHg 92%

28 Ianuarie, Joi

Timp Temperatura Precipitaţii Vânt Presiune Umiditate
00:00 +10°C° 1.2 mm 9 m/s 741 mmHg 90%
01:00 +10°C° 0.2 mm 9 m/s 741 mmHg 88%
02:00 +8°C° 0.2 mm 10 m/s 740 mmHg 86%
03:00 +7°C° 0.2 mm 11 m/s 739 mmHg 84%
04:00 +7°C° 0 mm 11 m/s 740 mmHg 83%
05:00 +6°C° 0 mm 11 m/s 740 mmHg 82%
06:00 +6°C° 0 mm 11 m/s 740 mmHg 80%
07:00 +6°C° 0 mm 10 m/s 741 mmHg 81%
08:00 +5°C° 0 mm 10 m/s 741 mmHg 81%
09:00 +5°C° 0 mm 9 m/s 742 mmHg 81%
10:00 +5°C° 0 mm 9 m/s 743 mmHg 79%
11:00 +6°C° 0 mm 9 m/s 744 mmHg 76%
12:00 +7°C° 0 mm 10 m/s 745 mmHg 73%
13:00 +7°C° 0 mm 9 m/s 745 mmHg 74%
14:00 +7°C° 0 mm 8 m/s 746 mmHg 75%
15:00 +8°C° 0 mm 7 m/s 746 mmHg 75%
16:00 +8°C° 0 mm 6 m/s 747 mmHg 80%
17:00 +7°C° 0 mm 6 m/s 747 mmHg 84%
18:00 +5°C° 0 mm 6 m/s 748 mmHg 89%

29 Ianuarie, Vineri

Timp Temperatura Precipitaţii Vânt Presiune Umiditate
Arată mai mult

Formular de consimțământ

Meteoprog și furnizorii noștri de servicii pot stoca și accesa date personale, precum cookies, identificatori de dispozitiv sau alte tehnologii similare pe dispozitivul dumneavoastră și procesa astfel de date pentru a personaliza conținutul și reclamele, dar și pentru a oferi caracteristici de social media și pentru a analiza traficul.

  • Stocarea și/sau accesarea informațiilor pe dispozitivul dumneavoastră

    Cookies, identificatori de dispozitiv sau alte informații pot fi stocate sau accesate pe dispozitiv în scopurile indicate mai sus.

  • Reclame și conținut personalizat, evaluarea reclamelor și a conținutului, informații despre audiențe și dezvoltarea produselor

    Reclamele și conținutul pot fi personalizate pe baza unui profil. Pot fi adăugate date suplimentare pentru a personaliza mai bine reclamele și conținutul. Performanța reclamelor și conținutului poate fi măsurată. Pot fi obținute informații despre utilizatorii care au văzut reclamele și conținutul. Aceste date pot fi utilizate pentru a dezvolta sau îmbunătăți experiența utilizatorilor, sistemele și software-ul.

Dând clic pe ‘Sunt de acord’, permiteți utilizarea cookie-urilor menționate, a identificatorilor de dispozitiv, balizelor web sau altor tehnologii similare. Setările pot fi modificate din browser-ul dispozitivului dumneavoastră.

În anumite scopuri, interesele legitime pot prima asupra consimțământului. Puteți citi mai multe informații în acest sens în Politica privind Confidențialitatea Datelor și Cookie.